Terminal Aerodrome Forecast
Issued by NWS Chicago, IL

Home | Current Version | Previous Version | Graphics & Text | Print | Product List | Glossary On
Versions: 1 2 3 4 5 6 7 8 9 10 11 12 13 14 15 16 17 18 19 20 21 22 23
000
FTUS43 KLOT 130526
TAFRFD
TAF
KRFD 130526Z 1306/1406 19008KT P6SM BKN030
     FM130900 16010KT P6SM SCT025 OVC035
      TEMPO 1310/1312 3SM -SN SCT020 OVC030
     FM131400 19013KT P6SM FEW030 OVC060
     FM131600 23014G21KT 6SM -SN OVC025
      TEMPO 1317/1319 1 1/2SM -SN BKN015
     FM132000 32016G28KT P6SM -SHSN OVC018=

USA.gov is the U.S. government's official web portal to all federal, state and local government web resources and services.